When you browse on this site, cookies collect data to enhance your experience and personalize the content and advertising you see.
Visit our Privacy Policy to learn more. By continuing to use the site, you agree to this use of cookies and data.
  • In Hungary
  • List of Countries
  • For 7 days
  • Water Temperature
  • Satellite Maps
  • Weather Map
  • News
  • Weather Widgets
  • user-avatar
    Login

    Hourly Weather Perehins'ke

    Today, 16 December, Sunday

    Time Temperature Precipitation Wind Pressure Humidity
    00:00 -9°C° 0 mm 7 mps 719 mmHg 100%
    01:00 -9°C° 0.1 mm 6 mps 718 mmHg 100%
    02:00 -4°C° 0 mm 2 mps 718 mmHg 94%
    03:00 -7°C° 0 mm 3 mps 718 mmHg 100%
    04:00 -8°C° 0 mm 5 mps 718 mmHg 100%
    05:00 -8°C° 0 mm 5 mps 718 mmHg 100%
    06:00 -8°C° 0 mm 5 mps 718 mmHg 100%
    07:00 -9°C° 0 mm 6 mps 717 mmHg 100%
    08:00 -8°C° 0 mm 5 mps 717 mmHg 100%
    09:00 -8°C° 0.1 mm 5 mps 717 mmHg 100%
    10:00 -8°C° 0 mm 5 mps 717 mmHg 100%
    11:00 -8°C° 0 mm 5 mps 717 mmHg 100%
    12:00 -8°C° 0 mm 5 mps 717 mmHg 100%
    13:00 -8°C° 0 mm 4 mps 717 mmHg 100%
    14:00 0°C° 0 mm 3 mps 718 mmHg 87%
    15:00 -3°C° 0 mm 4 mps 718 mmHg 100%
    16:00 -3°C° 0 mm 4 mps 718 mmHg 100%
    17:00 -4°C° 0 mm 4 mps 718 mmHg 100%
    18:00 -4°C° 0 mm 3 mps 718 mmHg 100%
    19:00 -5°C° 0 mm 3 mps 718 mmHg 100%
    20:00 -6°C° 0 mm 3 mps 718 mmHg 100%
    21:00 -5°C° 0 mm 3 mps 719 mmHg 100%
    22:00 -5°C° 0 mm 3 mps 718 mmHg 100%
    23:00 -5°C° 0 mm 3 mps 719 mmHg 100%

    Tomorrow, 17 December, Monday

    Time Temperature Precipitation Wind Pressure Humidity
    00:00 -4°C° 0 mm 2 mps 719 mmHg 100%
    01:00 -4°C° 0 mm 2 mps 718 mmHg 100%
    02:00 -4°C° 0 mm 2 mps 718 mmHg 100%
    03:00 -4°C° 0 mm 2 mps 718 mmHg 100%
    04:00 -4°C° 0 mm 2 mps 718 mmHg 100%
    05:00 -3°C° 0 mm 2 mps 718 mmHg 99%
    06:00 -1°C° 0 mm 1 mps 718 mmHg 98%
    07:00 -1°C° 0 mm 1 mps 718 mmHg 97%
    08:00 0°C° 0 mm 1 mps 718 mmHg 97%
    09:00 -1°C° 0.1 mm 1 mps 718 mmHg 100%
    10:00 -2°C° 0.8 mm 0 mps 718 mmHg 100%
    11:00 -1°C° 0.2 mm 1 mps 718 mmHg 100%
    12:00 0°C° 0.8 mm 1 mps 718 mmHg 100%
    13:00 0°C° 0.4 mm 1 mps 718 mmHg 100%
    14:00 0°C° 0 mm 1 mps 718 mmHg 100%
    15:00 0°C° 0.5 mm 1 mps 718 mmHg 100%
    16:00 -1°C° 1 mm 1 mps 719 mmHg 100%
    17:00 -1°C° 0.3 mm 1 mps 719 mmHg 100%
    18:00 -4°C° 0.4 mm 2 mps 719 mmHg 100%
    19:00 -4°C° 0.5 mm 2 mps 720 mmHg 100%
    20:00 -4°C° 1.3 mm 2 mps 720 mmHg 100%
    21:00 -4°C° 1.3 mm 2 mps 720 mmHg 100%
    22:00 -4°C° 0.5 mm 2 mps 720 mmHg 100%
    23:00 -5°C° 0.1 mm 2 mps 721 mmHg 100%

    Day after tomorrow, 18 December, Tuesday

    Time Temperature Precipitation Wind Pressure Humidity
    00:00 -5°C° 0.4 mm 2 mps 721 mmHg 100%
    01:00 -5°C° 0.7 mm 2 mps 721 mmHg 100%
    02:00 -6°C° 1.5 mm 2 mps 721 mmHg 100%
    03:00 -6°C° 1.5 mm 2 mps 721 mmHg 100%
    04:00 -6°C° 1.2 mm 2 mps 721 mmHg 100%
    05:00 -6°C° 1.2 mm 2 mps 722 mmHg 100%
    06:00 -7°C° 1.1 mm 2 mps 722 mmHg 100%
    07:00 -7°C° 0.7 mm 2 mps 722 mmHg 100%
    08:00 -7°C° 0.6 mm 2 mps 722 mmHg 100%
    09:00 -7°C° 0.8 mm 2 mps 723 mmHg 100%
    10:00 -7°C° 0.5 mm 2 mps 723 mmHg 100%
    11:00 -7°C° 0.1 mm 2 mps 723 mmHg 100%
    12:00 -7°C° 0.1 mm 2 mps 723 mmHg 100%
    13:00 -7°C° 0 mm 2 mps 723 mmHg 100%
    14:00 -7°C° 0 mm 2 mps 723 mmHg 100%
    15:00 -7°C° 0 mm 2 mps 723 mmHg 100%
    16:00 -7°C° 0 mm 2 mps 723 mmHg 100%
    17:00 -7°C° 0 mm 1 mps 723 mmHg 100%
    18:00 -7°C° 0 mm 1 mps 723 mmHg 100%
    19:00 -8°C° 0 mm 1 mps 723 mmHg 100%
    20:00 -8°C° 0 mm 1 mps 723 mmHg 100%
    21:00 -8°C° 0 mm 0 mps 723 mmHg 100%
    22:00 -8°C° 0 mm 0 mps 723 mmHg 100%
    23:00 -9°C° 0 mm 0 mps 723 mmHg 100%

    19 December, Wednesday

    Time Temperature Precipitation Wind Pressure Humidity
    00:00 -9°C° 0 mm 0 mps 723 mmHg 100%
    01:00 -9°C° 0 mm 0 mps 722 mmHg 100%
    02:00 -10°C° 0 mm 0 mps 723 mmHg 100%
    03:00 -10°C° 0 mm 0 mps 722 mmHg 100%
    04:00 -9°C° 0 mm 1 mps 722 mmHg 100%
    05:00 -9°C° 0 mm 0 mps 722 mmHg 100%
    06:00 -9°C° 0 mm 1 mps 722 mmHg 100%
    07:00 -9°C° 0 mm 1 mps 722 mmHg 100%
    08:00 -9°C° 0 mm 1 mps 722 mmHg 100%
    09:00 -9°C° 0 mm 1 mps 722 mmHg 100%
    10:00 -10°C° 0 mm 2 mps 722 mmHg 100%
    11:00 -9°C° 0 mm 2 mps 723 mmHg 100%
    12:00 -6°C° 0 mm 1 mps 723 mmHg 100%
    13:00 -4°C° 0 mm 1 mps 722 mmHg 100%
    14:00 -5°C° 0 mm 0 mps 723 mmHg 100%
    15:00 -4°C° 0 mm 1 mps 723 mmHg 100%
    16:00 -6°C° 0 mm 1 mps 722 mmHg 100%
    17:00 -7°C° 0 mm 2 mps 722 mmHg 100%
    18:00 -7°C° 0 mm 2 mps 722 mmHg 99%
    19:00 -7°C° 0 mm 2 mps 722 mmHg 99%
    20:00 -7°C° 0 mm 2 mps 722 mmHg 100%
    21:00 -7°C° 0 mm 2 mps 722 mmHg 100%
    22:00 -7°C° 0 mm 2 mps 722 mmHg 100%
    23:00 -7°C° 0 mm 2 mps 722 mmHg 99%

    20 December, Thursday

    Time Temperature Precipitation Wind Pressure Humidity
    00:00 -6°C° 0 mm 2 mps 722 mmHg 93%
    01:00 -4°C° 0 mm 1 mps 722 mmHg 90%
    02:00 -4°C° 0 mm 1 mps 722 mmHg 87%
    03:00 -6°C° 0 mm 2 mps 722 mmHg 85%
    04:00 -6°C° 0 mm 2 mps 722 mmHg 80%
    05:00 -5°C° 0 mm 2 mps 722 mmHg 75%
    06:00 -5°C° 0 mm 2 mps 722 mmHg 72%
    07:00 -6°C° 0 mm 2 mps 722 mmHg 71%
    08:00 -6°C° 0 mm 2 mps 722 mmHg 68%
    09:00 -5°C° 0 mm 2 mps 722 mmHg 66%
    10:00 -2°C° 0 mm 1 mps 722 mmHg 59%
    11:00 -2°C° 0 mm 1 mps 722 mmHg 59%
    12:00 -2°C° 0 mm 1 mps 722 mmHg 67%
    13:00 -1°C° 0 mm 1 mps 722 mmHg 76%
    14:00 -1°C° 0 mm 1 mps 721 mmHg 81%

    21 December, Friday

    Time Temperature Precipitation Wind Pressure Humidity
    Show more